Home   Weather   Battambang   Past weeks

Flag for Cambodia Past Weather in Battambang, Cambodia — Yesterday and Last 2 Weeks

Now
73 °F

Scattered clouds.


Feels Like: 73 °F
Forecast: 74 / 85 °F
Wind: 9 mph from Northwest

Location: Siemreap

Current Time: Dec 11, 2016 at 9:16:45 am

Latest Report: Dec 11, 2016 at 8:30 am


Visibility: N/A

Pressure: 29.83 "Hg

Humidity: 83%

Dew Point: 68 °F

Location of BattambangLocation

Past Weather in Battambang — Graph

°F

Battambang Temperature Yesterday

Maximum temperature yesterday: 88 °F (at 1:00 pm)
Minimum temperature yesterday: 73 °F (at 6:30 am)
Average temperature yesterday: 82 °F

High & Low Weather Summary for the Past Weeks

 TemperatureHumidityPressure
High90 °F (Dec 3, 2:30 pm)100% (Nov 26, 7:30 am)29.98 "Hg (Nov 26, 7:30 am)
Low68 °F (Dec 9, 5:00 pm)49% (Dec 3, 2:30 pm)29.71 "Hg (Nov 26, 2:30 pm)
Average81 °F72%29.84 "Hg
* Reported Nov 26 7:00 am — Dec 11 7:30 am, Battambang, Weather by CustomWeather, © 2016

Note: Actual official high and low records may vary slightly from our data, if they occured in-between our weather recording intervals... More about our weather records

Advertising

Battambang Weather History for the Previous 24 Hours

Scroll right to see more
 ConditionsComfort  
Time TempWeatherWind HumidityBarometerVisibility
7:30 am
Sun, Dec 11
72 °FScattered clouds.5 mph94%29.80 "Hg6 mi
7:00 am72 °FScattered clouds.3 mph94%29.77 "Hg6 mi
2:30 am75 °FPassing clouds.2 mph78%29.77 "Hg6 mi
2:00 am75 °FPassing clouds.1 mph83%29.77 "Hg6 mi
1:30 am75 °FPassing clouds.1 mph83%29.80 "Hg6 mi
1:00 am75 °FPassing clouds.1 mph78%29.80 "Hg6 mi
12:30 am77 °FPassing clouds.5 mph74%29.80 "Hg6 mi
12:00 am77 °FPassing clouds.2 mph74%29.80 "Hg6 mi
11:00 pm
Sat, Dec 10
77 °FPassing clouds.3 mph74%29.80 "Hg6 mi
10:30 pm77 °FPassing clouds.3 mph79%29.83 "Hg6 mi
10:00 pm79 °FPassing clouds.3 mph74%29.80 "Hg6 mi
9:30 pm79 °FPassing clouds.3 mph74%29.80 "Hg6 mi
8:00 pm81 °FPassing clouds.6 mph70%29.77 "Hg6 mi
7:30 pm81 °FPassing clouds.6 mph70%29.77 "Hg6 mi
7:00 pm81 °FPassing clouds.5 mph70%29.77 "Hg6 mi
6:30 pm82 °FPassing clouds.3 mph66%29.74 "Hg6 mi
6:00 pm82 °FPassing clouds.5 mph66%29.74 "Hg6 mi
5:30 pm84 °FPassing clouds.5 mph62%29.74 "Hg6 mi
5:00 pm86 °FPassing clouds.7 mph52%29.71 "Hg6 mi
4:30 pm86 °FPassing clouds.7 mph52%29.71 "HgN/A
4:00 pm86 °FPassing clouds.7 mph52%29.71 "HgN/A
3:30 pm88 °FPassing clouds.6 mph49%29.71 "HgN/A
3:00 pm88 °FPassing clouds.6 mph49%29.71 "HgN/A
2:30 pm88 °FPassing clouds.3 mph49%29.71 "HgN/A
2:00 pm88 °FPassing clouds.6 mph52%29.71 "HgN/A
1:30 pm88 °FPassing clouds.6 mph52%29.74 "HgN/A
1:00 pm88 °FPassing clouds.12 mph52%29.74 "HgN/A
12:30 pm86 °FPassing clouds.6 mph55%29.77 "HgN/A
12:00 pm86 °FPassing clouds.6 mph55%29.80 "HgN/A
11:30 am86 °FScattered clouds.5 mph55%29.80 "HgN/A
11:00 am84 °FScattered clouds.6 mph58%29.83 "HgN/A
10:30 am82 °FScattered clouds.5 mph62%29.83 "HgN/A
10:00 am82 °FScattered clouds.5 mph62%29.83 "HgN/A
9:30 am81 °FScattered clouds.6 mph66%29.83 "HgN/A
9:00 am79 °FScattered clouds.8 mph74%29.83 "HgN/A
Weather by CustomWeather, © 2016

See weather overviewHow to use our weather pages